[Date Prev][Date Next][Thread Prev][Thread Next] - [Date Index][Thread Index][Author Index]
2 Line ISS Keps 3-30
- Subject: [sarex] 2 Line ISS Keps 3-30
- From: "Dave Larsen PhD" <doc@xxxxxxxxxxx>
- Date: Tue, 29 Mar 2005 18:36:57 -0800
ISS
1 25544U 98067A 05089.03438355 .00016855 00000-0 13921-3 0 1269
2 25544 051.6462 305.9329 0005562 309.1731 211.1232 15.70433546363236
----
Via the sarex mailing list at AMSAT.ORG courtesy of AMSAT-NA.
To unsubscribe, send "unsubscribe sarex" to Majordomo@amsat.org
AMSAT Home